Home   Weather   Gdańsk   Past weeks

Flag for Poland Past Weather in Gdańsk, Poland — Yesterday and Last 2 Weeks

Now
48 °F

Light rain. Fog.


Feels Like: 44 °F
Forecast: 47 / 54 °F
Wind: 9 mph from Southeast

Location: Gdansk-Rebiechowo

Current Time: Oct 22, 2017 at 5:34:21 pm

Latest Report: Oct 22, 2017 at 5:00 pm


Visibility: 1 mi

Pressure: 29.86 "Hg

Humidity: 94%

Dew Point: 46 °F

Location of GdańskLocation

Past Weather in Gdańsk — Graph

°F

Gdańsk Temperature Yesterday

Maximum temperature yesterday: 54 °F (at 3:00 pm)
Minimum temperature yesterday: 52 °F (at 12:00 am)
Average temperature yesterday: 52 °F

High & Low Weather Summary for the Past Weeks

 TemperatureHumidityPressure
High70 °F (Oct 16, 2:30 pm)100% (Oct 8, 5:00 am)30.24 "Hg (Oct 8, 5:00 am)
Low41 °F (Oct 8, 8:30 pm)57% (Oct 16, 2:30 pm)29.45 "Hg (Oct 8, 4:00 am)
Average52 °F89%29.92 "Hg
* Reported Oct 7 4:00 pm — Oct 22 4:00 pm, Gdańsk. Weather by CustomWeather, © 2017

Note: Actual official high and low records may vary slightly from our data, if they occured in-between our weather recording intervals... More about our weather records

Advertising

Gdańsk Weather History for the Previous 24 Hours

Scroll right to see more
 ConditionsComfort  
Time TempWeatherWind HumidityBarometerVisibility
4:00 pm
Sun, Oct 22
48 °FLight rain. Fog.12 mph100%29.86 "Hg2 mi
3:30 pm48 °FLight rain. Fog.12 mph100%29.86 "Hg2 mi
3:00 pm48 °FFog.13 mph100%29.86 "Hg2 mi
2:30 pm48 °FFog.13 mph100%29.89 "Hg2 mi
2:00 pm48 °FFog.14 mph100%29.89 "Hg2 mi
1:30 pm48 °FFog.14 mph100%29.89 "Hg2 mi
1:00 pm48 °FFog.14 mph100%29.89 "Hg2 mi
12:30 pm50 °FFog.13 mph100%29.89 "Hg2 mi
12:00 pm50 °FFog.10 mph100%29.92 "Hg3 mi
11:30 am50 °FFog.10 mph100%29.92 "Hg2 mi
11:00 am50 °FFog.9 mph94%29.92 "Hg1 mi
10:30 am48 °FFog.10 mph100%29.92 "Hg0 mi
10:00 am50 °FCool.10 mph94%29.92 "Hg1 mi
9:30 am50 °FFog.9 mph100%29.92 "Hg1 mi
9:00 am50 °FCool.9 mph100%29.92 "Hg1 mi
8:30 am50 °FFog.8 mph100%29.92 "Hg0 mi
8:00 am50 °FFog.9 mph100%29.92 "Hg1 mi
7:30 am48 °FDrizzle. Fog.8 mph100%29.92 "Hg0 mi
7:00 am48 °FFog.9 mph100%29.92 "Hg0 mi
6:30 am48 °FDrizzle. Fog.12 mph100%29.92 "Hg0 mi
6:00 am48 °FDrizzle. Fog.9 mph100%29.95 "Hg1 mi
5:30 am48 °FFog.10 mph100%29.95 "Hg0 mi
5:00 am48 °FFog.9 mph100%29.95 "Hg0 mi
4:30 am48 °FFog.9 mph100%29.95 "Hg0 mi
4:00 am48 °FFog.9 mph100%29.95 "Hg0 mi
3:30 am50 °FFog.9 mph100%29.95 "Hg1 mi
3:00 am50 °FFog.8 mph100%29.98 "Hg1 mi
2:30 am50 °FFog.9 mph100%29.98 "Hg1 mi
2:00 am50 °FFog.10 mph100%29.98 "Hg1 mi
1:30 am52 °FFog.9 mph94%29.98 "Hg1 mi
1:00 am52 °FFog.8 mph100%29.98 "Hg1 mi
12:30 am52 °FFog.8 mph100%29.98 "Hg2 mi
12:00 am52 °FFog.9 mph100%29.98 "Hg2 mi
11:30 pm
Sat, Oct 21
52 °FPassing clouds.7 mph100%29.98 "Hg2 mi
11:00 pm52 °FFog.7 mph100%29.98 "Hg2 mi
10:30 pm52 °FFog.6 mph100%29.98 "Hg2 mi
10:00 pm52 °FFog.7 mph100%29.98 "Hg2 mi
9:30 pm52 °FFog.7 mph100%29.98 "Hg1 mi
9:00 pm52 °FFog.10 mph100%29.98 "Hg2 mi
8:30 pm52 °FFog.6 mph100%29.98 "Hg2 mi
8:00 pm52 °FFog.6 mph100%29.98 "Hg1 mi
7:30 pm52 °FFog.3 mph100%29.98 "Hg1 mi
7:00 pm52 °FFog.5 mph100%29.95 "Hg1 mi
6:30 pm52 °FFog.6 mph100%29.95 "Hg1 mi
6:00 pm52 °FFog.5 mph100%29.95 "Hg1 mi
5:30 pm52 °FFog.5 mph100%29.95 "Hg0 mi
5:00 pm52 °FDrizzle. Fog.3 mph100%29.95 "Hg0 mi
Weather by CustomWeather, © 2017

See weather overview